STARLINK-5673 (55462 NORAD) Tracking and Keplerian Element Data

This shows tracking and keplerian element data for the satellite.

Feedback or suggestion? Click here.




ElementValue
Catalog55462
NameSTARLINK-5673
Epoch Orbit831
Epoch Day85.25001157
Epoch Year2023
RAAN76.7396
Inclination43.0006
Eccentricity0.0001459
Argument of Perigee267.0704
Mean Anonmoly153.0049
Mean Motion15.489323
Decay Rate-0.00060478
L11 55462U 23015P 23085.25001157 -.00060478 00000+0 -10952-2 0 9997
L22 55462 43.0006 76.7396 0001459 267.0704 153.0049 15.48932300 8319



Live tracking and technical data element details for STARLINK-5673 (NORAD 55462). STARLINK-5673 can be tracked NOW for your location showing map with azimuth and elevation plus other details from your city location.







IsCatalogInMostPopularTable: catalog: 55462, numindb: -1

Insert: records affected: 1


GetName: 55462 STARLINK-5673

Hit Count: inserted at: Tue, 28 Mar 2023 01:43:14 GMT